Flag for Germany Weather past 2 weeks in Augsburg, Bavaria, Germany

Now
48 °F

Mostly cloudy.


Feels Like: 42 °F
Forecast: 46 / 49 °F
Wind: 16 mph from Southwest

Location: Augsburg Airport

Current Time: Dec 18, 2014 at 3:48:21 PM

Latest Report: Dec 18, 2014 at 3:20 PM


Visibility: 5 mi

Pressure: 30.01 "Hg

Humidity: 100%

Dew point: 48 °F

Location of AugsburgLocation

Historic Weather in Augsburg — Graph

°F

Augsburg temperature yesterday

Maximum temperature yesterday: 43 °F (at 1:50 PM)
Minimum temperature yesterday: 37 °F (at 6:20 AM)
Average temperature yesterday: 40 °F

Past Weeks' High & Low Weather Summary

 TemperatureHumidityPressure
High52 °F (Dec 14, 1:50 PM)100% (Dec 3, 2:20 PM)30.42 "Hg (Dec 3, 2:20 PM)
Low28 °F (Dec 9, 5:20 PM)47% (Dec 12, 1:50 PM)29.77 "Hg (Dec 12, 8:20 PM)
Average39 °F89%30.03 "Hg
* Reported Dec 3 2:20 PM — Dec 18 2:50 PM, Augsburg, Weather by CustomWeather, © 2014

Note: Actual official high and low records may vary slightly from our data, if they occured in-between our weather recording intervals... More about our weather records

Advertising

Augsburg weather history for previous 24 hours

 ConditionsComfort  
Time TempWeatherWind HumidityBarometerVisibility
2:50 PM
Dec 18
48 °FBroken clouds.17 mph100%30.01 "HgN/A
2:20 PM48 °FDrizzle. More clouds than sun.17 mph100%30.01 "HgN/A
1:50 PM48 °FDrizzle. Mostly cloudy.15 mph100%30.01 "Hg4 mi
1:20 PM48 °FDrizzle. Overcast.17 mph100%30.01 "Hg3 mi
12:50 PM48 °FBroken clouds.14 mph94%30.01 "HgN/A
12:20 PM50 °FBroken clouds.13 mph88%30.01 "HgN/A
11:50 AM48 °FDrizzle. Broken clouds.13 mph94%30.01 "HgN/A
11:20 AM48 °FDrizzle. Broken clouds.13 mph82%30.04 "HgN/A
10:50 AM46 °FPartly sunny.10 mph82%30.04 "HgN/A
10:20 AM46 °FPartly sunny.9 mph82%30.04 "HgN/A
9:50 AM46 °FPartly sunny.12 mph82%30.04 "HgN/A
9:20 AM45 °FPartly sunny.9 mph87%30.04 "HgN/A
8:50 AM45 °FPartly sunny.12 mph93%30.04 "HgN/A
8:20 AM45 °FQuite cool.8 mph100%30.04 "HgN/A
7:50 AM45 °FQuite cool.7 mph100%30.04 "HgN/A
7:20 AM45 °FPassing clouds.6 mph93%30.04 "HgN/A
6:50 AM43 °FMostly cloudy.7 mph100%30.01 "HgN/A
6:20 AM43 °FMostly cloudy.9 mph100%30.01 "HgN/A
8:50 PM
Dec 17
39 °FMostly cloudy.15 mph100%29.89 "Hg5 mi
8:20 PM39 °FMostly cloudy.14 mph100%29.86 "Hg5 mi
7:50 PM39 °FDrizzle. Mostly cloudy.15 mph100%29.86 "Hg5 mi
7:20 PM39 °FMostly cloudy.16 mph100%29.86 "HgN/A
6:50 PM39 °FLight rain. Mostly cloudy.16 mph93%29.86 "HgN/A
6:20 PM39 °FLight rain. Mostly cloudy.15 mph100%29.83 "HgN/A
5:50 PM39 °FLight rain. Mostly cloudy.18 mph100%29.83 "HgN/A
5:20 PM39 °FLight rain. Mostly cloudy.17 mph100%29.80 "HgN/A
4:50 PM39 °FLight rain. Mostly cloudy.14 mph100%29.80 "HgN/A
4:20 PM41 °FLight rain. More clouds than sun.18 mph93%29.80 "HgN/A
3:50 PM41 °FLight rain. Mostly cloudy.13 mph93%29.80 "HgN/A
3:20 PM41 °FLight rain. Mostly cloudy.16 mph87%29.80 "HgN/A
Weather by CustomWeather, © 2014

See weather overviewHow to use our weather pages